User: anonymous   Login
Location: Betzi
(47.2343°N, 9.5260°E)
Time: 20:23:00
(UTC+00:00)
Language:

SL-16 R/B - Orbit

View from above orbital plane
View from above orbital plane
View from above satellite
View from above satellite

Ground track
Ground track

The orbit data is extracted from the following two-line orbital elements,

1 27006U 01056F   22229.40112830  .00000001  00000-0  51553-4 0  9997
2 27006  99.5855   4.9448 0015477  94.7520 332.1758 13.70981969 35019
Epoch (UTC): 17 August 2022 09:37:37
Eccentricity: 0.0015477
inclination: 99.5855°
perigee height: 984 km
apogee height: 1007 km
right ascension of ascending node: 4.9448°
argument of perigee: 94.7520°
revolutions per day: 13.70981969
mean anomaly at epoch: 332.1758°
orbit number at epoch: 3501

The dashed part of the orbit path shows where the satellite is in the earth's shadow,  

DLR